Regional Weather Roundup
Issued by NWS

Home | Current Version | Previous Version | Text Only | Print | Product List | Glossary Off
Versions: 1 2 3 4 5 6 7 8 9 10 11 12 13 14 15 16 17 18 19 20 21 22 23 24 25 26 27 28 29 30 31 32 33 34 35 36 37 38 39 40 41 42 43 44 45 46 47 48 49 50

000
ASUS43 KOAX 281602
RWRNE

WEATHER ROUNDUP FOR NEBRASKA
NATIONAL WEATHER SERVICE OMAHA NE
1100 AM CDT WED SEP 28 2016

NOTES: SATELLITE DATA IS BEING USED TO AUGMENT CLOUD COVER ABOVE
       12000 FEET.
       "FAIR" INDICATES FEW OR NO CLOUDS BELOW 12,000 FEET WITH NO
       SIGNIFICANT WEATHER AND/OR OBSTRUCTIONS TO VISIBILITY.

  * THESE STATIONS DO NOT REPORT WEATHER SUCH AS RAIN...SNOW OR FOG.

NEZ001>004-019>022-054>056-281700-
NEBRASKA PANHANDLE

CITY           SKY/WX    TMP DP  RH WIND       PRES   REMARKS
SCOTTSBLUFF    SUNNY     64  45  49 NW8       30.31R
ALLIANCE       SUNNY     70  45  40 VRB3      30.29R
CHADRON        SUNNY     66  45  46 SW3       30.28R
KIMBALL        SUNNY     69  43  38 NE3       30.35R
SIDNEY         SUNNY     71  42  35 NE13      30.31R
$$

NEZ057>060-069>072-079>082-281700-
SOUTHWEST NEBRASKA

CITY           SKY/WX    TMP DP  RH WIND       PRES   REMARKS
NORTH PLATTE   SUNNY     65  47  52 W3        30.24R
IMPERIAL       SUNNY     69  41  36 N8        30.26R
LEXINGTON      SUNNY     66  41  39 NE6       30.23R
MCCOOK         SUNNY     66  46  48 CALM      30.23R
OGALLALA       SUNNY     70  42  36 E6        30.26R
$$

NEZ005>010-023>029-035>040-094-281700-
NORTH CENTRAL NEBRASKA

CITY           SKY/WX    TMP DP  RH WIND       PRES   REMARKS
VALENTINE      SUNNY     63  37  38 VRB5      30.25R
AINSWORTH      SUNNY     61  34  36 NE7       30.25R
BROKEN BOW     SUNNY     64  33  31 NE8       30.23R
O`NEILL        SUNNY     56  43  61 NE8       30.25R
ORD            SUNNY     62  35  36 N10       30.22R
THEDFORD       SUNNY     64  43  45 CALM      30.26S
$$

NEZ041-046>049-061>064-073>077-083>087-281700-
SOUTH CENTRAL NEBRASKA

CITY           SKY/WX    TMP DP  RH WIND       PRES   REMARKS
GRAND ISLAND   SUNNY     62  38  40 N12       30.22R
AURORA         SUNNY     60  42  52 N13       30.21R
HASTINGS       SUNNY     62  39  42 N14       30.21R
HEBRON         SUNNY     62  40  45 N14       30.18R
HOLDREGE       SUNNY     64  34  32 N9        30.22R
KEARNEY *      SUNNY     64  36  34 N12       30.22R
YORK           SUNNY     57  45  62 N10G18    30.21R
$$

NEZ011>018-030>034-042>045-281700-
NORTHEAST NEBRASKA

CITY           SKY/WX    TMP DP  RH WIND       PRES   REMARKS
NORFOLK        SUNNY     56  43  61 N13       30.22R
ALBION         SUNNY     56  43  60 N9        30.23R
BLAIR          SUNNY     55  46  70 N16G22    30.18R
FREMONT        SUNNY     56  44  64 N9        30.20R
TEKAMAH        SUNNY     56  44  64 N17       30.19R
WAYNE          SUNNY     55  45  67 N7        30.22R
$$

NEZ050>053-065>068-078-088>093-281700-
SOUTHEAST NEBRASKA

CITY           SKY/WX    TMP DP  RH WIND       PRES   REMARKS
LINCOLN        SUNNY     60  45  57 N15       30.20R
OMAHA EPPLEY   MOSUNNY   58  45  62 N15       30.17R
BEATRICE       SUNNY     61  46  57 NE15      30.17R
FALLS CITY     SUNNY     59  45  59 N16       30.13R
NEBRASKA CITY  SUNNY     57  40  53 N13G20    30.16R
PLATTSMOUTH    SUNNY     56  42  59 N10G16    30.17R
$$

NEZ044-045-051>053-067-281700-
OMAHA AREA

CITY           SKY/WX    TMP DP  RH WIND       PRES   REMARKS
OMAHA EPPLEY   MOSUNNY   58  45  62 N15       30.17R
BLAIR          SUNNY     55  46  70 N16G22    30.18R
FREMONT        SUNNY     56  44  64 N9        30.20R
MILLARD        SUNNY     57  45  63 N10G16    30.18R
OFFUTT AFB     SUNNY     56  46  69 N9        30.17R
PLATTSMOUTH    SUNNY     56  42  59 N10G16    30.17R
WAHOO          FAIR      58  44  60 N13       30.19R
$$



USA.gov is the U.S. government's official web portal to all federal, state and local government web resources and services.